• In Hungary
  • List of Countries
  • For 7 days
  • Water Temperature
  • Satellite Maps
  • Weather Map
  • News
  • Weather Widgets
  • user-avatar
    Login

    Hourly Weather Bedford

    Today, 19 February, Monday

    Time Temperature Precipitation Wind Pressure Humidity
    00:00 +5°C° 0.1 mm 2 mps 761 mmHg 95%
    01:00 +6°C° 0.3 mm 2 mps 760 mmHg 95%
    02:00 +6°C° 0.3 mm 2 mps 760 mmHg 96%
    03:00 +6°C° 0.3 mm 2 mps 760 mmHg 96%
    04:00 +6°C° 0.4 mm 2 mps 759 mmHg 97%
    05:00 +6°C° 0.4 mm 2 mps 759 mmHg 97%
    06:00 +7°C° 0.4 mm 2 mps 759 mmHg 97%
    07:00 +7°C° 0.3 mm 3 mps 759 mmHg 97%
    08:00 +7°C° 0.3 mm 3 mps 759 mmHg 97%
    09:00 +8°C° 0.3 mm 3 mps 759 mmHg 96%
    10:00 +9°C° 0.2 mm 3 mps 759 mmHg 94%
    11:00 +8°C° 0.2 mm 4 mps 759 mmHg 92%
    12:00 +10°C° 0.2 mm 4 mps 759 mmHg 91%
    13:00 +10°C° 0.1 mm 4 mps 759 mmHg 89%
    14:00 +11°C° 0.1 mm 4 mps 758 mmHg 88%
    15:00 +10°C° 0.1 mm 5 mps 758 mmHg 86%
    16:00 +10°C° 0.1 mm 4 mps 758 mmHg 88%
    17:00 +10°C° 0.1 mm 4 mps 758 mmHg 89%
    18:00 +8°C° 0.1 mm 4 mps 759 mmHg 90%
    19:00 +8°C° 0.1 mm 4 mps 759 mmHg 91%
    20:00 +8°C° 0.1 mm 4 mps 759 mmHg 92%
    21:00 +7°C° 0.1 mm 4 mps 759 mmHg 93%
    22:00 +7°C° 0.1 mm 4 mps 759 mmHg 93%
    23:00 +7°C° 0.1 mm 4 mps 759 mmHg 93%

    Tomorrow, 20 February, Tuesday

    Time Temperature Precipitation Wind Pressure Humidity
    00:00 +7°C° 0.1 mm 4 mps 759 mmHg 94%
    01:00 +7°C° 0.1 mm 4 mps 759 mmHg 94%
    02:00 +7°C° 0.1 mm 4 mps 759 mmHg 93%
    03:00 +7°C° 0.1 mm 5 mps 759 mmHg 93%
    04:00 +7°C° 0 mm 5 mps 759 mmHg 92%
    05:00 +6°C° 0 mm 5 mps 759 mmHg 91%
    06:00 +6°C° 0 mm 5 mps 760 mmHg 91%
    07:00 +5°C° 0.2 mm 6 mps 760 mmHg 88%
    08:00 +5°C° 0.2 mm 7 mps 760 mmHg 86%
    09:00 +5°C° 0.2 mm 8 mps 761 mmHg 83%
    10:00 +5°C° 0.3 mm 8 mps 761 mmHg 82%
    11:00 +5°C° 0.3 mm 8 mps 761 mmHg 81%
    12:00 +5°C° 0.3 mm 7 mps 762 mmHg 81%
    13:00 +5°C° 0.1 mm 7 mps 762 mmHg 82%
    14:00 +5°C° 0.1 mm 6 mps 763 mmHg 83%
    15:00 +5°C° 0.1 mm 6 mps 763 mmHg 85%
    16:00 +5°C° 0 mm 5 mps 764 mmHg 86%
    17:00 +5°C° 0 mm 5 mps 765 mmHg 87%
    18:00 +4°C° 0 mm 4 mps 765 mmHg 88%
    19:00 +4°C° 0 mm 4 mps 766 mmHg 89%
    20:00 +3°C° 0 mm 3 mps 767 mmHg 89%
    21:00 +3°C° 0 mm 3 mps 767 mmHg 90%
    22:00 +3°C° 0 mm 3 mps 767 mmHg 91%
    23:00 +3°C° 0 mm 2 mps 768 mmHg 92%

    Day after tomorrow, 21 February, Wednesday

    Time Temperature Precipitation Wind Pressure Humidity
    00:00 +3°C° 0 mm 2 mps 768 mmHg 93%
    01:00 +3°C° 0 mm 2 mps 768 mmHg 93%
    02:00 +3°C° 0 mm 2 mps 768 mmHg 94%
    03:00 +3°C° 0 mm 2 mps 768 mmHg 94%
    04:00 +3°C° 0 mm 2 mps 768 mmHg 94%
    05:00 +3°C° 0 mm 2 mps 768 mmHg 94%
    06:00 +3°C° 0 mm 2 mps 768 mmHg 94%
    07:00 +3°C° 0 mm 2 mps 768 mmHg 93%
    08:00 +4°C° 0 mm 2 mps 768 mmHg 92%
    09:00 +5°C° 0 mm 2 mps 768 mmHg 90%
    10:00 +4°C° 0 mm 3 mps 768 mmHg 88%
    11:00 +5°C° 0 mm 3 mps 768 mmHg 85%
    12:00 +7°C° 0 mm 3 mps 768 mmHg 82%
    13:00 +6°C° 0.1 mm 4 mps 768 mmHg 81%
    14:00 +6°C° 0.1 mm 4 mps 767 mmHg 79%
    15:00 +6°C° 0.1 mm 4 mps 767 mmHg 78%
    16:00 +5°C° 0 mm 4 mps 767 mmHg 82%
    17:00 +5°C° 0 mm 4 mps 767 mmHg 85%
    18:00 +4°C° 0 mm 3 mps 767 mmHg 89%
    19:00 +3°C° 0 mm 3 mps 767 mmHg 91%
    20:00 +2°C° 0 mm 3 mps 767 mmHg 92%
    21:00 +2°C° 0 mm 3 mps 767 mmHg 94%
    22:00 +2°C° 0 mm 3 mps 767 mmHg 94%
    23:00 +1°C° 0 mm 3 mps 767 mmHg 94%

    22 February, Thursday

    Time Temperature Precipitation Wind Pressure Humidity
    00:00 +1°C° 0 mm 3 mps 767 mmHg 93%
    01:00 +1°C° 0 mm 3 mps 767 mmHg 93%
    02:00 0°C° 0 mm 3 mps 766 mmHg 93%
    03:00 0°C° 0 mm 3 mps 766 mmHg 92%
    04:00 0°C° 0 mm 3 mps 766 mmHg 92%
    05:00 0°C° 0 mm 3 mps 766 mmHg 92%
    06:00 0°C° 0 mm 3 mps 766 mmHg 92%
    07:00 0°C° 0 mm 3 mps 766 mmHg 88%
    08:00 0°C° 0 mm 4 mps 766 mmHg 85%
    09:00 +1°C° 0 mm 4 mps 766 mmHg 81%
    10:00 +3°C° 0 mm 4 mps 766 mmHg 76%
    11:00 +4°C° 0 mm 4 mps 766 mmHg 72%
    12:00 +5°C° 0 mm 4 mps 766 mmHg 67%
    13:00 +5°C° 0 mm 4 mps 765 mmHg 67%
    14:00 +5°C° 0 mm 4 mps 765 mmHg 67%
    15:00 +5°C° 0 mm 4 mps 765 mmHg 67%
    16:00 +4°C° 0 mm 4 mps 765 mmHg 72%
    17:00 +3°C° 0 mm 3 mps 765 mmHg 78%
    18:00 +1°C° 0 mm 3 mps 765 mmHg 84%
    19:00 +1°C° 0 mm 3 mps 765 mmHg 85%
    20:00 0°C° 0 mm 3 mps 765 mmHg 87%
    21:00 0°C° 0 mm 3 mps 765 mmHg 89%
    22:00 0°C° 0 mm 3 mps 765 mmHg 89%
    23:00 -1°C° 0 mm 3 mps 765 mmHg 89%

    23 February, Friday

    Time Temperature Precipitation Wind Pressure Humidity
    00:00 -1°C° 0 mm 3 mps 765 mmHg 89%
    01:00 -1°C° 0 mm 3 mps 765 mmHg 89%
    02:00 -1°C° 0 mm 3 mps 765 mmHg 89%
    03:00 -1°C° 0 mm 3 mps 765 mmHg 89%
    04:00 -1°C° 0 mm 3 mps 765 mmHg 89%
    05:00 -1°C° 0 mm 3 mps 765 mmHg 89%
    06:00 -1°C° 0 mm 3 mps 765 mmHg 89%
    07:00 0°C° 0 mm 3 mps 765 mmHg 83%
    08:00 0°C° 0 mm 4 mps 765 mmHg 76%
    09:00 +1°C° 0 mm 5 mps 765 mmHg 70%
    10:00 +1°C° 0 mm 5 mps 765 mmHg 66%
    11:00 +2°C° 0 mm 5 mps 765 mmHg 62%
    12:00 +3°C° 0 mm 5 mps 765 mmHg 58%
    13:00 +3°C° 0 mm 5 mps 765 mmHg 59%
    14:00 +3°C° 0 mm 4 mps 765 mmHg 60%
    15:00 +3°C° 0 mm 4 mps 765 mmHg 61%
    16:00 +1°C° 0 mm 4 mps 765 mmHg 67%
    17:00 0°C° 0 mm 4 mps 765 mmHg 72%
    18:00 -1°C° 0 mm 4 mps 765 mmHg 77%
    19:00 -1°C° 0 mm 4 mps 766 mmHg 78%
    20:00 -2°C° 0 mm 4 mps 766 mmHg 79%
    21:00 -2°C° 0 mm 4 mps 766 mmHg 80%
    22:00 -2°C° 0 mm 4 mps 766 mmHg 79%
    23:00 -2°C° 0 mm 4 mps 767 mmHg 77%

    24 February, Saturday

    Time Temperature Precipitation Wind Pressure Humidity
    00:00 -1°C° 0 mm 4 mps 767 mmHg 75%
    01:00 -1°C° 0 mm 4 mps 767 mmHg 75%
    02:00 -2°C° 0 mm 4 mps 767 mmHg 75%
    03:00 -1°C° 0 mm 3 mps 767 mmHg 75%
    04:00 -2°C° 0 mm 4 mps 767 mmHg 76%
    05:00 -2°C° 0 mm 4 mps 768 mmHg 77%
    06:00 -3°C° 0 mm 4 mps 768 mmHg 78%
    07:00 -2°C° 0 mm 4 mps 768 mmHg 73%
    08:00 -1°C° 0 mm 5 mps 769 mmHg 68%
    09:00 -1°C° 0 mm 6 mps 769 mmHg 63%
    10:00 -1°C° 0 mm 6 mps 769 mmHg 61%
    11:00 +1°C° 0 mm 6 mps 769 mmHg 58%
    12:00 +2°C° 0 mm 6 mps 770 mmHg 56%
    13:00 +2°C° 0 mm 6 mps 769 mmHg 57%
    14:00 +1°C° 0 mm 6 mps 769 mmHg 57%
    15:00 +1°C° 0 mm 6 mps 769 mmHg 58%
    16:00 0°C° 0 mm 5 mps 770 mmHg 62%
    17:00 -1°C° 0 mm 5 mps 770 mmHg 67%
    18:00 -2°C° 0 mm 4 mps 770 mmHg 72%
    19:00 -3°C° 0 mm 4 mps 771 mmHg 73%
    20:00 -3°C° 0 mm 4 mps 771 mmHg 74%
    21:00 -3°C° 0 mm 4 mps 771 mmHg 75%
    22:00 -3°C° 0 mm 4 mps 772 mmHg 74%
    23:00 -3°C° 0 mm 4 mps 772 mmHg 73%
    Show more